Preview of NWS' New Version of Forecast
This preview is not operational and should not be used for support decisions.

Regional Weather Roundup (RWR)

Issued by National Weather Service (NWS)

                            
000
ASUS45 KABQ 220601
RWRNM 
NEW MEXICO REGIONAL WEATHER ROUNDUP
NATIONAL WEATHER SERVICE ALBUQUERQUE NM
1100 PM MST THU FEB 21 2019

NOTE: "FAIR" MEANS FEW OR NO CLOUDS BELOW 12,000 FEET AGL WITH NO
       SIGNIFICANT WEATHER OR OBSTRUCTIONS TO VISION.

      THIS PRODUCT IS RELEASED AS TWO VERSIONS.  ONE VERSION NEAR
      THE TOP OF THE HOUR CONTAINING PRELIMINARY DATA FROM ALBUQUERQUE
      AND OTHER STATIONS.  A FINAL VERSION WITH ADDITIONAL DATA IS 
      ISSUED ABOUT 10 MINUTES AFTER THE HOUR.
 
NMZ501-503-504-510>518-220700-
NORTHWEST PLATEAU/NORTHCENTRAL MOUNTAINS
  
CITY           SKY/WX    TMP DP  RH WIND       PRES   REMARKS
FARMINGTON     FLURRIES  33  28  81 W7        29.66R WCI  27          
6HR MIN TEMP:  33; 6HR MAX TEMP:  37; 6HR PCP: TRACE;                

LOS ALAMOS     CLOUDY    32  11  41 S10       29.76S WCI  24          
SANTA FE       CLOUDY    37   8  30 S14       29.75S WCI  28          
6HR MIN TEMP:  32; 6HR MAX TEMP:  41;                                

TAOS           MOCLDY    29  15  56 SE13      29.77F WCI  19          
ANGEL FIRE       N/A     16   7  69 CALM      29.80S                  

$$
NMZ402-403-502-505>509-220700-
WESTCENTRAL MOUNTAINS/SOUTHWEST MOUNTAINS
  
CITY           SKY/WX    TMP DP  RH WIND       PRES   REMARKS
GALLUP         LGT SNOW  27  26  96 SW3       29.66S FOG              
6HR MIN TEMP:  27; 6HR MAX TEMP:  36; 6HR PCP:  0.12;                

GRANTS         MOCLDY    32  18  58 S12       29.71F WCI  23          
SILVER CITY    CLOUDY    41  23  47 S10       29.81F                  

$$
NMZ407-409-411-412-220700-
SOUTHERN DESERTS
  
CITY           SKY/WX    TMP DP  RH WIND       PRES   REMARKS
DEMING         CLOUDY    46  13  26 S12       29.81S                  
6HR MIN TEMP:  46; 6HR MAX TEMP:  55;                                

LAS CRUCES     FAIR      50  16  25 SW21G26   29.82S                  
ALAMOGORDO     CLOUDY    46  10  23 MISG      29.82S                  
T OR C         CLOUDY    48  20  32 SW18G28   29.76S                  
6HR MIN TEMP:  47; 6HR MAX TEMP:  52;                                


$$
NMZ519>523-220700-
CENTRAL VALLEYS/CENTRAL HIGHLANDS
  
CITY           SKY/WX    TMP DP  RH WIND       PRES   REMARKS
ALBUQUERQUE    FAIR      43  12  28 S20       29.74S                  
6HR MIN TEMP:  42; 6HR MAX TEMP:  47;                                

DOUBLE EAGLE   FAIR      34  13  42 S12       29.75R WCI  25          
CLINES CORNERS CLOUDY    32   8  36 S8        29.80R WCI  25          
6HR MIN TEMP:  30; 6HR MAX TEMP:  40;                                

BELEN          MOCLDY    44  11  26 S18       29.74S                  
6HR MIN TEMP:  43; 6HR MAX TEMP:  47;                                

SOCORRO        NOT AVBL                                               

$$
NMZ524>526-539-540-220700-
SOUTHCENTRAL MOUNTAINS
  
CITY           SKY/WX    TMP DP  RH WIND       PRES   REMARKS
RUIDOSO        NOT AVBL                                               

$$
NMZ527>531-220700-
NORTHEAST HIGHLANDS/NORTHEAST PLAINS
  
CITY           SKY/WX    TMP DP  RH WIND       PRES   REMARKS
LAS VEGAS      CLOUDY    36   9  32 S12       29.78F WCI  28          
6HR MIN TEMP:  29; 6HR MAX TEMP:  39;                                

RATON          MOCLDY    31  13  47 W6        29.78F WCI  25          
6HR MIN TEMP:  29; 6HR MAX TEMP:  36;                                

CLAYTON        FAIR      33  29  85 SE9       29.85F WCI  25          
6HR MIN TEMP:  33; 6HR MAX TEMP:  45; 6HR PCP:  0.01;                


$$
NMZ532>537-220700-
EASTCENTRAL PLAINS
  
CITY           SKY/WX    TMP DP  RH WIND       PRES   REMARKS
SANTA ROSA     FAIR      43  10  25 E6        29.78S                  
TUCUMCARI      CLOUDY    48  32  53 S13       29.81R                  
6HR MIN TEMP:  44; 6HR MAX TEMP:  57;                                

CANNON AFB     CLOUDY    42  29  60 SE12      29.87R                  
6HR MIN TEMP:  42; 6HR MAX TEMP:  59;                                

CLOVIS AIRPORT MOCLDY    41  27  57 SE12      29.87R                  

$$
NMZ028-029-538-220700-
SOUTHEAST PLAINS
  
CITY           SKY/WX    TMP DP  RH WIND       PRES   REMARKS
ROSWELL        FAIR      46  28  49 SE9       29.76S                  
6HR MIN TEMP:  46; 6HR MAX TEMP:  64;                                

ARTESIA        FAIR      46  28  49 SE10      29.78S                  
CARLSBAD       FAIR      45  29  53 SE3       29.77S                  
6HR MIN TEMP:  44; 6HR MAX TEMP:  68;                                

HOBBS          FAIR      43  32  65 SE10      29.82S                  


$$